Houma, LA

5:37 AM CDT on March 28, 2017 (GMT -0500)
Houma-terrebonne

Weather History for KHUM - March, 2013

Change the Weather History Date:

Thursday, March 28, 2013

  Actual Average Record
Temperature  
Mean Temperature 50 °F -  
Max Temperature 64 °F 74 °F 85 °F (1945)
Min Temperature 36 °F 56 °F 36 °F (1931)
Degree Days  
Heating Degree Days 15    
Moisture  
Dew Point 43 °F    
Average Humidity 85    
Maximum Humidity 100    
Minimum Humidity 42    
Precipitation  
Precipitation 0.00 in - - ()
Sea Level Pressure  
Sea Level Pressure 30.31 in    
Wind  
Wind Speed 2 mph (ESE)    
Max Wind Speed 12 mph    
Max Gust Speed -    
Visibility 7 miles    
Events      
Averages and records for this station are not official NWS values.
T = Trace of Precipitation, MM = Missing Value Source: NWS Daily Summary

Daily Weather History Graph

Daily Weather History Graph

Search for Another Location

Airport or City:

Trip Planner

Search our weather history database for the weather conditions in past years. The results will help you decide how hot, cold, wet, or windy it might be!

Date:

Astronomy

Mar. 28, 2013 Rise Set
Actual Time 6:56 AM CDT 7:18 PM CDT
Civil Twilight 6:32 AM CDT 7:42 PM CDT
Nautical Twilight 6:04 AM CDT 8:10 PM CDT
Astronomical Twilight 5:36 AM CDT 8:39 PM CDT
Moon 8:59 PM CDT 7:33 AM CDT
Length of Visible Light 13h 10m
Length of Day
12h 22m
Full, 98% of the Moon is Illuminated
Mar 28
Full
Apr 2
Last Quarter
Apr 10
New
Apr 18
First Quarter
Apr 25
Full

Hourly Weather History & Observations

Time (CDT) Temp. Dew Point Humidity Pressure Visibility Wind Dir Wind Speed Gust Speed Precip Events Conditions
12:15 AM 42.6 °F 40.8 °F 93% 30.33 in 7.0 mi Calm Calm - N/A   Clear
12:35 AM 42.6 °F 41.4 °F 95% 30.33 in 7.0 mi Calm Calm - N/A   Clear
12:55 AM 41.0 °F 39.0 °F 93% 30.33 in 7.0 mi Calm Calm - N/A   Clear
1:15 AM 41.0 °F 39.9 °F 96% 30.32 in 7.0 mi Calm Calm - N/A   Clear
1:35 AM 41.0 °F 40.1 °F 97% 30.32 in 7.0 mi Calm Calm - N/A   Clear
1:55 AM 41.0 °F 40.5 °F 98% 30.32 in 5.0 mi Calm Calm - N/A   Clear
2:15 AM 40.1 °F 39.6 °F 98% 30.31 in 7.0 mi Calm Calm - N/A   Clear
2:35 AM 40.1 °F 39.6 °F 98% 30.31 in 7.0 mi Calm Calm - N/A   Clear
3:15 AM 39.0 °F 38.8 °F 99% 30.30 in 5.0 mi Calm Calm - N/A   Clear
3:35 AM 39.4 °F 39.4 °F 100% 30.29 in 5.0 mi Calm Calm - N/A   Clear
3:55 AM 38.1 °F 37.9 °F 99% 30.29 in 5.0 mi Calm Calm - N/A   Clear
4:15 AM 38.5 °F 38.5 °F 100% 30.28 in 7.0 mi Calm Calm - N/A   Clear
4:35 AM 36.7 °F 36.5 °F 99% 30.29 in 3.0 mi Calm Calm - N/A   Clear
4:55 AM 39.4 °F 39.4 °F 100% 30.29 in 4.0 mi Calm Calm - N/A   Clear
5:15 AM 39.2 °F 39.2 °F 100% 30.29 in 7.0 mi Calm Calm - N/A   Clear
5:35 AM 38.3 °F 38.3 °F 100% 30.29 in 7.0 mi Calm Calm - N/A   Clear
5:50 AM 37.4 °F 37.4 °F 100% 30.31 in 7.0 mi Calm Calm - N/A   Clear
5:55 AM 37.0 °F 37.0 °F 100% 30.29 in 4.0 mi Calm Calm - N/A   Clear
6:15 AM 38.5 °F 38.5 °F 100% 30.30 in 5.0 mi Calm Calm - N/A   Clear
6:50 AM 39.2 °F 39.2 °F 100% 30.31 in 6.0 mi Calm Calm - N/A   Clear
7:50 AM 39.2 °F 39.2 °F 100% 30.33 in 6.0 mi Calm Calm - N/A   Clear
8:50 AM 50.0 °F 46.4 °F 87% 30.35 in 7.0 mi NE 6.9 mph - N/A   Clear
9:50 AM 57.2 °F 44.6 °F 63% 30.36 in 7.0 mi ENE 11.5 mph - N/A   Clear
10:50 AM 60.8 °F 42.8 °F 52% 30.37 in 7.0 mi East 11.5 mph - N/A   Clear
11:48 AM 62.6 °F 42.8 °F 48% 30.37 in 7.0 mi NNE 8.1 mph - N/A   Clear
12:55 PM 64.4 °F 41.0 °F 42% 30.35 in 7.0 mi NNE 8.1 mph - N/A   Clear
1:50 PM 64.4 °F 42.8 °F 45% 30.30 in 7.0 mi South 11.5 mph - N/A   Clear
2:49 PM 64.4 °F 41.0 °F 42% 30.31 in 7.0 mi SE 10.4 mph - N/A   Clear
3:52 PM 64.4 °F 44.6 °F 49% 30.29 in 7.0 mi SE 11.5 mph - N/A   Clear
4:55 PM 62.6 °F 46.4 °F 55% 30.26 in 7.0 mi SE 11.5 mph - N/A   Clear
5:48 PM 62.6 °F 46.4 °F 55% 30.26 in 7.0 mi SE 11.5 mph - N/A   Clear
6:48 PM 59.0 °F 48.2 °F 67% 30.28 in 7.0 mi SE 11.5 mph - N/A   Clear
7:35 PM 55.2 °F 48.6 °F 78% 30.28 in 7.0 mi SE 4.6 mph - N/A   Clear
7:55 PM 54.5 °F 48.4 °F 80% 30.28 in 10.0 mi SE 3.5 mph - N/A   Clear
8:15 PM 55.4 °F 49.1 °F 79% 30.28 in 7.0 mi SSE 3.5 mph - N/A   Clear
8:35 PM 53.6 °F 49.1 °F 85% 30.29 in 7.0 mi Calm Calm - N/A   Clear
8:55 PM 52.7 °F 47.5 °F 82% 30.29 in 10.0 mi Calm Calm - N/A   Clear
9:15 PM 51.8 °F 48.2 °F 88% 30.30 in 10.0 mi ESE 3.5 mph - N/A   Clear
9:35 PM 52.2 °F 48.6 °F 88% 30.30 in 7.0 mi Calm Calm - N/A   Clear
9:55 PM 50.9 °F 48.2 °F 90% 30.30 in 7.0 mi Calm Calm - N/A   Clear
10:15 PM 50.0 °F 47.8 °F 92% 30.31 in 7.0 mi ESE 3.5 mph - N/A   Clear
10:35 PM 50.0 °F 48.2 °F 94% 30.31 in 7.0 mi ESE 3.5 mph - N/A   Clear
10:55 PM 49.5 °F 48.2 °F 95% 30.31 in 7.0 mi Calm Calm - N/A   Clear
11:15 PM 50.2 °F 49.1 °F 96% 30.31 in 7.0 mi SE 3.5 mph - N/A   Clear
11:35 PM 49.3 °F 48.4 °F 97% 30.30 in 7.0 mi Calm Calm - N/A   Clear
11:55 PM 48.4 °F 47.7 °F 97% 30.30 in 7.0 mi Calm Calm - N/A   Clear